Lid_Strength_Index
5 5 5 6 6 6 6 6 6 6 5 5 5 5 5 4 4 4 5 3 4 6 5 4 4 6 6 6 10 8 10 10 10 12 12 12 13 12 13 12 14 15 16 16 15 17 19 8 8 11 10 8 7 9
5 5 6 6 7 7 7 6 6 6 5 5 5 5 5 5 4 3 6 3 1 5 5 2 2 2 3 3 6 7 9 10 11 12 12 12 13 12 13 17 11 15 13 15 14 15 9 7 8 7 6 9 10 11
5 5 6 6 7 6 6 6 6 5 5 5 5 4 4 4 3 3 4 4 3 5 5 3 4 2 0 1 1 8 7 9 10 9 12 12 14 12 15 14 13 11 10 12 12 11 9 8 6 6 7 9 10 10
5 5 5 6 6 6 6 6 6 5 5 5 5 4 4 4 3 3 4 4 3 5 8 5 1 2 0 0 2 3 4 8 8 9 12 13 14 11 13 13 13 13 12 12 11 10 8 7 6 7 8 9 10 10
5 5 6 6 6 6 6 7 6 5 5 5 4 4 4 4 3 3 3 3 2 5 8 6 4 1 1 1 3 4 6 7 9 11 12 13 11 12 12 12 14 13 12 13 14 10 9 9 7 7 9 10 11 12
5 5 6 6 6 7 7 6 5 5 5 5 4 4 4 4 3 4 5 1 1 1 6 9 3 3 2 2 3 4 5 7 9 10 10 10 9 11 13 14 12 11 10 9 10 8 9 9 9 9 10 11 11 11
5 5 6 6 7 7 6 5 5 5 5 4 4 4 4 3 3 4 6 2 -0 -0 6 9 7 3 2 3 3 4 5 7 8 10 11 10 10 10 12 14 13 12 11 11 9 9 10 10 11 10 10 10 10 10
5 6 6 7 7 6 6 5 5 5 5 4 4 4 3 3 3 4 1 1 0 2 4 9 8 6 2 5 7 4 7 8 9 10 9 11 10 10 14 14 12 12 11 12 11 11 10 10 10 10 9 10 10 10
6 6 7 7 7 6 5 5 5 5 4 4 4 3 3 3 4 2 0 1 -1 3 7 8 9 10 3 5 5 6 6 11 8 11 11 10 13 16 14 13 12 12 12 12 11 11 11 11 11 10 9 9 10 10
6 7 7 7 6 5 5 5 5 5 4 3 3 3 5 3 3 1 2 4 4 4 5 8 5 9 5 6 8 8 7 10 13 11 9 12 15 13 12 12 12 12 12 11 13 13 12 12 11 11 10 9 9 9
7 6 6 6 6 5 5 5 5 4 4 2 4 5 3 1 1 4 7 7 6 9 6 6 6 7 4 8 9 7 10 9 13 11 11 13 15 13 10 10 9 9 9 10 10 11 11 10 11 11 11 10 9 9
6 6 6 6 5 5 5 5 4 4 4 5 6 4 3 4 5 8 8 6 7 8 5 6 6 5 5 4 8 7 11 9 14 9 11 14 12 8 9 9 8 8 8 9 9 10 9 10 10 10 10 10 9 8
6 6 6 6 5 5 5 4 4 4 4 4 5 6 6 6 10 10 11 8 9 6 5 5 7 5 5 4 7 9 12 13 8 12 14 13 9 8 8 9 9 8 9 9 9 9 10 9 8 8 8 8 7 7
6 6 6 5 5 5 5 4 4 4 5 8 8 11 8 9 7 7 7 7 5 5 5 5 6 6 5 7 7 12 9 9 13 15 14 11 9 8 8 8 9 9 9 9 8 8 8 8 9 9 9 8 9 9
6 6 5 6 5 4 4 5 5 4 6 8 7 11 8 5 5 5 4 5 5 4 5 6 6 6 7 8 7 10 12 14 13 14 11 8 7 6 6 6 7 7 7 7 7 7 8 8 8 8 7 7 7 7
6 6 5 4 5 5 5 4 5 5 6 6 6 7 6 6 6 5 5 5 3 4 4 5 7 8 9 8 10 11 12 14 13 10 7 6 6 5 5 5 5 5 6 6 6 6 6 6 7 7 7 7 7 7
6 4 4 4 5 5 5 5 5 6 6 6 6 4 4 5 6 5 5 4 3 5 8 6 10 10 7 10 11 9 11 10 9 8 6 5 5 5 4 4 5 5 5 5 5 5 5 5 6 7 8 7 7 7
5 4 5 5 4 4 3 4 5 5 7 5 6 5 4 4 5 4 4 3 4 6 6 8 6 9 10 12 11 8 7 7 7 6 6 5 3 3 3 3 4 4 4 5 5 5 5 5 6 6 6 6 6 6
4 4 5 4 4 5 6 5 4 7 5 4 4 3 3 4 3 3 3 2 3 3 4 6 8 8 9 7 7 6 6 6 7 6 6 4 3 3 3 3 3 4 4 4 4 5 5 4 4 5 5 6 7 6
5 5 4 4 4 5 6 5 2 5 6 4 3 4 3 4 3 3 3 3 4 5 7 7 8 7 6 5 4 5 4 5 5 6 6 6 5 3 3 3 3 2 3 3 4 5 3 4 4 4 4 5 6 6
5 3 3 3 4 4 5 4 5 4 4 5 4 4 4 3 4 5 5 3 5 5 6 5 5 4 3 2 3 3 3 4 5 5 5 5 4 3 3 2 3 3 4 4 4 4 5 4 3 3 4 4 4 4
4 4 3 3 4 4 5 3 4 3 4 4 4 4 5 6 5 5 4 5 5 5 5 4 4 4 3 3 3 3 3 3 3 3 5 5 4 4 3 3 3 4 4 3 3 4 3 3 3 3 3 3 4 4
4 3 4 4 6 6 7 2 5 5 7 6 5 6 6 6 6 4 7 5 5 3 3 3 3 3 3 2 2 2 3 4 4 4 3 3 3 3 3 3 2 3 3 3 3 3 3 5 4 3 3 3 4 5
5 5 6 6 6 8 4 6 5 5 5 6 7 7 7 7 5 7 8 7 4 3 3 3 2 4 3 3 4 3 3 3 3 3 3 3 3 3 2 2 2 2 2 2 2 3 3 3 5 3 3 4 4 5
8 8 7 11 5 6 7 7 6 7 8 7 7 8 8 5 8 9 9 6 5 5 4 3 4 4 5 4 3 3 3 3 3 4 3 2 2 2 2 2 2 2 1 2 2 2 3 3 3 3 3 4 4 4
10 7 9 7 6 7 7 9 8 7 7 8 8 7 6 8 10 11 7 5 4 4 3 4 4 4 4 4 4 4 4 2 2 3 2 2 2 3 3 3 3 2 1 1 2 2 3 3 4 3 4 4 8 4
11 9 6 3 4 5 6 5 5 6 8 8 7 8 9 11 10 8 4 3 3 2 2 2 3 3 4 3 2 2 1 1 2 2 1 1 1 1 1 2 3 1 0 1 2 2 3 3 3 3 3 3 3 3
7 6 7 5 6 5 7 7 7 8 7 5 6 8 9 9 9 5 4 2 2 1 2 1 1 1 2 2 1 2 1 1 1 1 1 1 0 0 0 0 0 6 1 1 2 2 2 2 3 3 3 3 3 3
7 5 5 7 6 6 6 7 6 5 3 4 7 7 7 5 3 3 2 2 1 2 2 3 2 1 1 1 1 1 2 2 3 4 4 4 3 2 1 0 1 1 1 2 11 6 2 2 2 2 2 2 2 2
6 4 6 6 7 7 5 4 4 3 3 3 3 4 4 4 3 1 2 2 2 3 2 2 2 2 2 2 3 2 1 1 1 2 4 4 3 2 1 1 2 2 2 2 2 3 9 4 5 2 2 2 2 1
4 5 6 6 6 4 3 3 3 3 3 4 3 5 5 4 2 1 1 1 2 2 2 3 2 2 2 2 3 3 3 1 1 1 1 1 1 1 1 1 1 1 2 1 1 2 2 3 2 2 2 2 2 3
5 6 6 7 6 3 3 3 4 4 4 5 5 4 4 4 6 3 1 2 2 3 5 3 2 3 1 1 1 1 8 2 2 3 3 2 0 0 0 1 1 0 1 1 1 1 1 2 2 2 1 2 2 2
5 5 5 5 5 6 4 5 6 6 5 6 5 5 5 5 7 3 0 0 1 2 2 2 1 1 1 1 1 3 6 3 8 11 11 11 11 7 1 1 1 1 1 1 1 1 1 2 2 4 5 6 6 6